Location: Sungai Bunut
(2.6333°N, 113.7333°E)
Time: 10:03:51
(UTC+00:00)

Transit 2A Rocket - Pass Details

Date: 05 December 2023
Orbit: 590 x 905 km, 66.7° (Epoch: 01 March)

Event Time Altitude Azimuth Distance (km) Brightness Sun altitude
Rises 00:37:08 0° 320° (NW) 2,996 7.6 31.2°
Reaches altitude 10° 00:39:36 10° 309° (NW) 2,134 6.9 31.8°
Maximum altitude 00:43:48 29° 249° (WSW) 1,315 6.2 32.7°
Drops below altitude 10° 00:48:21 10° 190° (S) 2,321 7.8 33.7°
Sets 00:51:09 0° 179° (S) 3,308 8.7 34.3°
